千帆星座-17 (QIANFAN-17)

导读

QIANFAN-17 是中国“北斗”卫星导航系统的重要组成部分,主要用于提供高精度定位、导航和授时服务。该卫星采用先进的技术,具备更强的信号稳定性和抗干扰能力,提升了系统的整体性能和覆盖范围。QIANFAN-17 的成功发射进一步增强了北斗系统在全球范围内的竞争力,为交通运输、应急救援、农业、通信等多个领域提供可靠支持,标志着中国在卫星导航领域的持续发展和自主创新能力的提升。

Basic Information
目录编号:
60395
目录名称:
QIANFAN-17
国际标识:
2024-140S
轨道中心:
EARTH
卫星名称:
千帆星座-17 (QIANFAN-17)
卫星全名:
千帆星座-17 (QIANFAN-17)
卫星状态:
在轨 (已飞行766 天)
发射日期:
2024-08-06 UTC
国别 :
中国 (CN)
星等 :
--
This satellite is enrolled in the Space Conjunction Data Service (SCDS) and the current flight risk assessment level is: No High Risk
Orbit Information
数据来源 国际轨道数据 AOE轨道数据
星历时间 2026-09-11T07:44:45+0800
9小时前
查看轨道信息
2026-09-10T23:00:00+0800
17小时前
查看轨道信息
半长轴 7446.64km 7446.638km
偏心率 0.0016532 0.0016526
轨道倾角 88.968° 88.967°
近地点辐角 134.084° 135.126°
升交点赤经 271.205° 271.243°
平近点角 226.167° 253.813°
近地点 1056.192km 1056.194km
远地点 1080.814km 1080.808km
周期 106.586分钟 106.586分钟
每日圈数 13.510214 13.510222
Detailed Information
运营商:
上海垣信卫星科技有限公司
运营商所在国:
中国
使用方式:
暂无
Satellite Introduction
千帆星座,也被称为“G60星链”计划,是中国版“星链”的重要组成部分,旨在打造一个由1.4万多颗低轨宽频多媒体卫星构成的庞大星座。千帆星座计划由上海垣信卫星科技有限公司负责实施,于2023年启动建设。该项目是我国第二个低轨卫星大星座,旨在通过构建庞大的卫星网络,为全球用户提供高质量的通信和宽带互联网服务。
2D Orbit Map
3D Orbit Map
Orbit Altitude Analysis Chart
Orbit Inclination Analysis Chart
Orbit Comprehensive Analysis Chart
View Comprehensive Chart
Conjunction Data List
Event ID Objects TCA Miss Dist (km) Collision Risk Probability Collision Risk Index (CRI) Action
CDM_260912-192104-064806-039523
2026-09-12T
19:21:20+0000
2.028 km
极远距离
2.73523E-6 低风险 0.44
Miss Distance Evolution Trend with All Objects
Collision Probability Evolution Trend with All Objects